Alexandria, LA

9:33 PM CDT on October 18, 2017 (GMT -0500)
Alexandria International

Weather History for KAEX - October, 2013

Change the Weather History Date:

Thursday, October 31, 2013

  Actual Average Record
Temperature  
Mean Temperature 69 °F 63 °F  
Max Temperature 75 °F 75 °F 89 °F (1951)
Min Temperature 62 °F 50 °F 29 °F (1917)
Degree Days  
Heating Degree Days 0 5  
Month to date heating degree days 43 71  
Since 1 July heating degree days 43 73  
Cooling Degree Days 4 2  
Month to date cooling degree days 163 136  
Year to date cooling degree days 2589 2486  
Growing Degree Days 18 (Base 50)    
Moisture  
Dew Point 68 °F    
Average Humidity 91    
Maximum Humidity 100    
Minimum Humidity 82    
Precipitation  
Precipitation 1.76 in 0.06 in 6.10 in (2015)
Month to date precipitation 4.89 5.18  
Year to date precipitation 47.87 44.31  
Snow  
Snow 0.00 in - 0.00 in ()
Month to date snowfall 0.0  
Since 1 July snowfall 0.0  
Since 1 September snowfall 0.0  
Snow Depth 0.00 in    
Sea Level Pressure  
Sea Level Pressure 29.81 in    
Wind  
Wind Speed 9 mph (SSW)    
Max Wind Speed 26 mph    
Max Gust Speed 40 mph    
Visibility 7 miles    
Events Rain , Thunderstorm    
T = Trace of Precipitation, MM = Missing Value Source: NWS Daily Summary

Daily Weather History Graph

Daily Weather History Graph

Search for Another Location

Airport or City:

Trip Planner

Search our weather history database for the weather conditions in past years. The results will help you decide how hot, cold, wet, or windy it might be!

Date:

Astronomy

Oct. 31, 2013 Rise Set
Actual Time 7:25 AM CDT 6:21 PM CDT
Civil Twilight 7:00 AM CDT 6:46 PM CDT
Nautical Twilight 6:31 AM CDT 7:15 PM CDT
Astronomical Twilight 6:03 AM CDT 7:43 PM CDT
Moon 4:26 AM CDT (10/31) 4:31 PM CDT (10/31)
Length of Visible Light 11h 46m
Length of Day
10h 56m
Waning Crescent, 10% of the Moon is Illuminated
Oct 31
Waning Crescent
Nov 3
New
Nov 9
First Quarter
Nov 17
Full
Nov 25
Last Quarter

Hourly Weather History & Observations

Time (CDT) Temp. Dew Point Humidity Pressure Visibility Wind Dir Wind Speed Gust Speed Precip Events Conditions
12:53 AM 72.0 °F 69.1 °F 91% 29.91 in 10.0 mi SSE 11.5 mph - N/A   Mostly Cloudy
1:46 AM 73.4 °F 69.8 °F 88% 29.88 in 10.0 mi SSE 11.5 mph - N/A   Overcast
1:53 AM 72.0 °F 70.0 °F 93% 29.88 in 10.0 mi SSE 13.8 mph 18.4 mph N/A   Overcast
2:53 AM 73.0 °F 70.0 °F 90% 29.86 in 10.0 mi SSE 12.7 mph 19.6 mph N/A   Overcast
3:53 AM 72.0 °F 70.0 °F 93% 29.81 in 6.0 mi SE 15.0 mph - 0.07 in Rain Rain
4:49 AM 73.4 °F 69.8 °F 88% 29.78 in 10.0 mi SSE 12.7 mph - 0.00 in   Overcast
4:53 AM 73.0 °F 70.0 °F 90% 29.78 in 10.0 mi SSE 11.5 mph 18.4 mph 0.00 in   Overcast
5:35 AM 73.4 °F 69.8 °F 88% 29.78 in 10.0 mi South 11.5 mph 18.4 mph N/A   Mostly Cloudy
5:53 AM 73.9 °F 70.0 °F 87% 29.78 in 10.0 mi SSE 12.7 mph 20.7 mph N/A   Overcast
6:53 AM 75.0 °F 70.0 °F 84% 29.76 in 10.0 mi SSE 11.5 mph 27.6 mph N/A   Overcast
7:53 AM 73.9 °F 71.1 °F 91% 29.77 in 5.0 mi SSE 11.5 mph 21.9 mph 0.04 in Rain Heavy Rain
8:53 AM 73.9 °F 72.0 °F 93% 29.78 in 4.0 mi SSE 9.2 mph - 0.26 in Rain Heavy Rain
9:02 AM 73.4 °F 71.6 °F 94% 29.77 in 4.0 mi SSE 9.2 mph 17.3 mph 0.03 in Rain Heavy Rain
9:10 AM 73.4 °F 71.6 °F 94% 29.76 in 6.0 mi SSE 11.5 mph 19.6 mph 0.04 in Rain Light Rain
9:48 AM 75.2 °F 73.4 °F 94% 29.78 in 6.0 mi South 16.1 mph 25.3 mph 0.09 in Rain , Thunderstorm Rain
9:53 AM 75.0 °F 73.0 °F 94% 29.79 in 6.0 mi South 17.3 mph 25.3 mph 0.10 in Rain , Thunderstorm Rain
9:57 AM 75.2 °F 73.4 °F 94% 29.78 in 5.0 mi South 16.1 mph 25.3 mph 0.01 in Rain Rain
10:10 AM 75.2 °F 73.4 °F 94% 29.76 in 4.0 mi South 13.8 mph 24.2 mph 0.06 in Rain Rain
10:15 AM 75.2 °F 73.4 °F 94% 29.77 in 5.0 mi South 9.2 mph 23.0 mph 0.08 in Rain , Thunderstorm Heavy Rain
10:30 AM 73.4 °F 73.4 °F 100% 29.73 in 1.8 mi South 26.5 mph 40.3 mph 0.23 in Rain , Thunderstorm Heavy Rain
10:46 AM 73.4 °F 71.6 °F 94% 29.79 in 3.0 mi WSW 18.4 mph 23.0 mph 0.35 in Rain , Thunderstorm Heavy Rain
10:53 AM 73.0 °F 71.1 °F 93% 29.81 in 4.0 mi WSW 15.0 mph 24.2 mph 0.40 in Rain , Thunderstorm Heavy Rain
10:55 AM 73.4 °F 71.6 °F 94% 29.80 in 3.0 mi WSW 12.7 mph 24.2 mph 0.01 in Rain Heavy Rain
11:03 AM 73.4 °F 71.6 °F 94% 29.80 in 2.0 mi SW 11.5 mph 19.6 mph 0.06 in Rain Heavy Rain
11:13 AM 73.4 °F 71.6 °F 94% 29.80 in 2.0 mi SW 10.4 mph - 0.12 in Rain Heavy Rain
11:21 AM 71.6 °F 71.6 °F 100% 29.81 in 1.8 mi SW 6.9 mph - 0.16 in Rain , Thunderstorm Heavy Rain
11:29 AM 71.6 °F 71.6 °F 100% 29.81 in 2.5 mi SSW 9.2 mph 16.1 mph 0.20 in Rain , Thunderstorm Heavy Rain
11:36 AM 71.6 °F 71.6 °F 100% 29.80 in 4.0 mi WSW 8.1 mph - 0.21 in Rain , Thunderstorm Rain
11:49 AM 71.6 °F 69.8 °F 94% 29.80 in 4.0 mi WSW 11.5 mph 18.4 mph 0.25 in Rain Rain
11:53 AM 72.0 °F 70.0 °F 93% 29.81 in 5.0 mi WSW 12.7 mph - 0.26 in Rain Rain
12:53 PM 69.1 °F 66.0 °F 90% 29.82 in 3.0 mi SW 12.7 mph 20.7 mph 0.16 in Rain Rain
1:20 PM 69.8 °F 66.2 °F 88% 29.81 in 2.5 mi SW 9.2 mph - 0.06 in Rain Heavy Rain
1:34 PM 69.8 °F 66.2 °F 88% 29.80 in 3.0 mi SW 8.1 mph - 0.10 in Rain Rain
1:53 PM 69.1 °F 66.9 °F 93% 29.81 in 3.0 mi SW 5.8 mph - 0.15 in Rain Rain
2:25 PM 69.8 °F 68.0 °F 94% 29.79 in 2.5 mi SSW 3.5 mph - 0.11 in Rain Heavy Rain
2:36 PM 68.0 °F 68.0 °F 100% 29.80 in 4.0 mi SSW 6.9 mph - 0.13 in Rain Rain
2:53 PM 68.0 °F 66.9 °F 96% 29.81 in 4.0 mi SSW 9.2 mph - 0.16 in Rain Rain
3:16 PM 68.0 °F 66.2 °F 94% 29.78 in 2.5 mi South 8.1 mph - 0.08 in Rain Heavy Rain
3:25 PM 68.0 °F 66.2 °F 94% 29.78 in 4.0 mi SSW 6.9 mph - 0.10 in Rain Rain
3:53 PM 68.0 °F 66.0 °F 93% 29.78 in 8.0 mi South 8.1 mph - 0.14 in Rain Light Rain
4:23 PM 68.0 °F 66.2 °F 94% 29.76 in 10.0 mi SSE 6.9 mph - 0.01 in   Mostly Cloudy
4:53 PM 66.9 °F 66.0 °F 97% 29.77 in 10.0 mi South 8.1 mph - 0.01 in   Mostly Cloudy
5:44 PM 66.2 °F 66.2 °F 100% 29.77 in 10.0 mi South 4.6 mph - N/A   Mostly Cloudy
5:53 PM 66.9 °F 66.0 °F 97% 29.78 in 10.0 mi South 5.8 mph - N/A   Overcast
6:53 PM 66.9 °F 64.9 °F 93% 29.82 in 10.0 mi SW 5.8 mph - N/A   Overcast
7:53 PM 66.0 °F 64.9 °F 96% 29.82 in 10.0 mi South 3.5 mph - N/A   Overcast
8:07 PM 66.2 °F 64.4 °F 94% 29.82 in 10.0 mi South 5.8 mph - N/A   Overcast
8:17 PM 66.2 °F 64.4 °F 94% 29.82 in 10.0 mi SSE 6.9 mph - N/A   Overcast
8:53 PM 64.9 °F 64.0 °F 97% 29.84 in 10.0 mi South 5.8 mph - N/A   Overcast
9:38 PM 64.4 °F 62.6 °F 94% 29.84 in 10.0 mi SW 4.6 mph - N/A   Scattered Clouds
9:48 PM 64.4 °F 62.6 °F 94% 29.84 in 10.0 mi SW 5.8 mph - N/A   Mostly Cloudy
9:53 PM 64.9 °F 64.0 °F 97% 29.86 in 10.0 mi Variable 3.5 mph - N/A   Mostly Cloudy
10:42 PM 64.4 °F 62.6 °F 94% 29.85 in 10.0 mi WSW 5.8 mph - N/A   Scattered Clouds
10:53 PM 64.0 °F 62.1 °F 93% 29.86 in 10.0 mi WSW 3.5 mph - N/A   Clear
11:07 PM 62.6 °F 62.6 °F 100% 29.85 in 10.0 mi WSW 3.5 mph - N/A   Mostly Cloudy
11:53 PM 63.0 °F 62.1 °F 97% 29.87 in 10.0 mi SW 4.6 mph - N/A   Mostly Cloudy